Change the Weather History Date:

Sunday, March 10, 2013

  Actual Average (KBRL) Record (KBRL)
Temperature  
Mean Temperature 43 °F 39 °F  
Max Temperature 49 °F 48 °F 76 °F (1955)
Min Temperature 37 °F 30 °F 0 °F (1934)
Degree Days  
Heating Degree Days 22 26  
Month to date heating degree days 281  
Since 1 July heating degree days 4659  
Cooling Degree Days 0 0  
Month to date cooling degree days 0  
Year to date cooling degree days 0  
Moisture  
Dew Point 43 °F    
Average Humidity 99    
Maximum Humidity 100    
Minimum Humidity 91    
Precipitation  
Precipitation 0.65 in 0.09 in 1.27 in (1990)
Month to date precipitation 0.85  
Year to date precipitation 3.71  
Sea Level Pressure  
Sea Level Pressure 29.70 in    
Wind  
Wind Speed 6 mph (South)    
Max Wind Speed 21 mph    
Max Gust Speed 25 mph    
Visibility 3 miles    
Events Fog , Rain , Thunderstorm    
T = Trace of Precipitation, MM = Missing Value Source: NWS Daily Summary

Daily Weather History Graph

Daily Weather History Graph

Search for Another Location

Airport or City:

Trip Planner

Search our weather history database for the weather conditions in past years. The results will help you decide how hot, cold, wet, or windy it might be!

Date:

Astronomy

Mar. 10, 2013 Rise Set
Actual Time 7:21 AM CDT 7:04 PM CDT
Civil Twilight 6:54 AM CDT 7:31 PM CDT
Nautical Twilight 6:23 AM CDT 8:03 PM CDT
Astronomical Twilight 5:51 AM CDT 8:35 PM CDT
Moon 6:22 AM CDT (3/10) 6:12 PM CDT (3/10)
Length of Visible Light 12h 36m
Length of Day
11h 42m
Waning Crescent, 2% of the Moon is Illuminated
Mar 10
Waning Crescent
Mar 11
New
Mar 19
First Quarter
Mar 27
Full
Apr 2
Last Quarter

Hourly Weather History & Observations

Time (CDT) Temp. Windchill Dew Point Humidity Pressure Visibility Wind Dir Wind Speed Gust Speed Precip Events Conditions
12:15 AM 40.1 °F 36.9 °F 37.6 °F 91% 29.79 in 10.0 mi North 4.6 mph - N/A   Overcast
12:35 AM 39.9 °F 37.8 °F 37.4 °F 91% 29.79 in 10.0 mi North 3.5 mph - N/A   Overcast
12:55 AM 39.6 °F 34.7 °F 37.4 °F 92% 29.78 in 7.0 mi NE 6.9 mph - N/A Rain Light Rain
1:15 AM 38.1 °F 33.7 °F 36.5 °F 94% 29.78 in 7.0 mi ENE 5.8 mph - 0.01 in Rain Light Rain
1:35 AM 37.9 °F 31.5 °F 37.0 °F 97% 29.77 in 7.0 mi East 9.2 mph - 0.01 in Rain Light Rain
1:55 AM 37.8 °F 32.5 °F 37.4 °F 99% 29.76 in 7.0 mi East 6.9 mph - 0.01 in   Overcast
3:15 AM 38.5 °F - 38.3 °F 99% 29.77 in 4.0 mi Calm Calm - 0.02 in Rain , Thunderstorm Rain
3:35 AM 39.0 °F 36.8 °F 38.7 °F 99% 29.77 in 5.0 mi SSE 3.5 mph - 0.03 in Rain Rain
3:55 AM 39.4 °F - 39.4 °F 100% 29.77 in 2.0 mi Calm Calm - 0.09 in Rain Rain
4:15 AM 38.3 °F 34.8 °F 38.3 °F 100% 29.76 in 1.5 mi East 4.6 mph - 0.03 in Rain Light Rain
4:35 AM 38.8 °F 35.4 °F 38.8 °F 100% 29.75 in 1.0 mi East 4.6 mph - 0.05 in Rain Light Rain
4:55 AM 39.2 °F 32.5 °F 39.2 °F 100% 29.70 in 1.5 mi East 10.4 mph - 0.05 in Rain Light Rain
5:15 AM 40.1 °F 36.9 °F 40.1 °F 100% 29.71 in 2.5 mi East 4.6 mph - N/A   Overcast
5:35 AM 39.2 °F 35.9 °F 39.2 °F 100% 29.72 in 1.0 mi East 4.6 mph - N/A   Overcast
5:55 AM 39.2 °F 33.0 °F 39.2 °F 100% 29.72 in 0.5 mi SE 9.2 mph - N/A Fog Fog
6:15 AM 41.0 °F 35.8 °F 41.0 °F 100% 29.72 in 0.2 mi South 8.1 mph - N/A Fog Fog
6:35 AM 44.6 °F 38.4 °F 44.6 °F 100% 29.70 in 5.0 mi SSE 12.7 mph - N/A   Overcast
6:55 AM 44.6 °F 40.2 °F 44.6 °F 100% 29.70 in 5.0 mi SSE 8.1 mph - N/A   Overcast
7:15 AM 42.8 °F 38.6 °F 42.8 °F 100% 29.74 in 4.0 mi SSE 6.9 mph - N/A   Overcast
7:35 AM 43.3 °F 39.2 °F 43.3 °F 100% 29.74 in 4.0 mi SSE 6.9 mph - N/A   Overcast
7:55 AM 43.2 °F 38.4 °F 43.2 °F 100% 29.74 in 2.5 mi SSE 8.1 mph - N/A   Overcast
8:15 AM 43.9 °F 38.8 °F 43.9 °F 100% 29.74 in 4.0 mi SSE 9.2 mph - N/A Rain Light Rain
8:35 AM 44.1 °F 39.0 °F 44.1 °F 100% 29.74 in 4.0 mi SSE 9.2 mph - 0.01 in Rain Light Rain
8:55 AM 44.4 °F 40.0 °F 44.1 °F 99% 29.74 in 5.0 mi SSE 8.1 mph - 0.01 in Rain Light Rain
9:15 AM 44.6 °F 39.2 °F 44.1 °F 98% 29.73 in 5.0 mi SSE 10.4 mph - N/A   Overcast
9:35 AM 44.2 °F 38.8 °F 43.7 °F 98% 29.75 in 4.0 mi South 10.4 mph - N/A Rain Light Rain
9:55 AM 44.4 °F 39.0 °F 44.4 °F 100% 29.75 in 3.0 mi South 10.4 mph - 0.02 in Rain Light Rain
10:15 AM 45.0 °F 41.2 °F 45.0 °F 100% 29.73 in 2.5 mi SSE 6.9 mph - 0.03 in Rain Light Rain
10:35 AM 44.8 °F 41.6 °F 44.8 °F 100% 29.68 in 2.0 mi SSE 5.8 mph - 0.04 in Rain Light Rain
10:55 AM 45.5 °F 41.8 °F 45.5 °F 100% 29.73 in 0.8 mi South 6.9 mph - 0.04 in Rain Light Rain
11:15 AM 44.6 °F 41.4 °F 44.6 °F 100% 29.71 in 0.5 mi SSE 5.8 mph - N/A Rain Light Rain
11:35 AM 44.8 °F 41.0 °F 44.8 °F 100% 29.72 in 0.2 mi SSE 6.9 mph - 0.02 in Rain Light Rain
11:55 AM 44.4 °F 39.0 °F 44.4 °F 100% 29.74 in 0.2 mi South 10.4 mph - 0.06 in Rain Rain
12:15 PM 46.2 °F 42.7 °F 46.2 °F 100% 29.72 in 1.0 mi SSW 6.9 mph - 0.05 in Rain Rain
12:35 PM 47.5 °F - 47.5 °F 100% 29.72 in 4.0 mi South 8.1 mph - 0.08 in Rain Light Rain
12:55 PM 46.4 °F 42.9 °F 46.4 °F 100% 29.72 in 1.8 mi SSE 6.9 mph - 0.10 in Rain Light Rain
1:15 PM 45.7 °F 42.7 °F 45.7 °F 100% 29.72 in 0.8 mi South 5.8 mph - 0.01 in Rain Rain
1:35 PM 46.9 °F - 46.9 °F 100% 29.71 in 0.2 mi Calm Calm - 0.05 in Rain Rain
1:55 PM 48.2 °F - 48.2 °F 100% 29.69 in 0.2 mi Calm Calm - 0.08 in Rain Light Rain
2:15 PM 48.6 °F - 48.6 °F 100% 29.68 in 0.2 mi SW 4.6 mph - N/A Rain Light Rain
2:35 PM 47.3 °F - 47.3 °F 100% 29.68 in 1.2 mi WSW 5.8 mph - 0.01 in Rain Light Rain
2:55 PM 47.1 °F - 47.1 °F 100% 29.69 in 2.0 mi WSW 5.8 mph - 0.02 in Rain Light Rain
3:15 PM 47.3 °F - 47.3 °F 100% 29.67 in 4.0 mi WSW 4.6 mph - 0.01 in Rain Light Rain
3:35 PM 47.5 °F - 47.5 °F 100% 29.64 in 3.0 mi Calm Calm - 0.02 in Rain Light Rain
3:55 PM 47.8 °F - 47.8 °F 100% 29.58 in 0.8 mi East 10.4 mph - 0.02 in Rain Light Rain
4:15 PM 49.1 °F - 49.1 °F 100% 29.60 in 4.0 mi East 6.9 mph - N/A   Mostly Cloudy
4:35 PM 48.6 °F - 48.6 °F 100% 29.60 in 5.0 mi SE 8.1 mph - N/A   Overcast
4:55 PM 48.2 °F - 48.2 °F 100% 29.63 in 4.0 mi SSW 8.1 mph - N/A Rain Light Rain
5:15 PM 48.2 °F - 48.2 °F 100% 29.64 in 4.0 mi SW 9.2 mph - 0.02 in Rain Light Rain
5:35 PM 47.5 °F - 47.5 °F 100% 29.64 in 2.5 mi WSW 8.1 mph - 0.03 in Rain Rain
5:55 PM 46.9 °F - 46.9 °F 100% 29.63 in 0.8 mi WSW 4.6 mph - 0.08 in Rain Light Rain
6:15 PM 46.2 °F 45.0 °F 46.2 °F 100% 29.64 in 0.2 mi West 3.5 mph - N/A   Drizzle
6:35 PM 44.6 °F 42.2 °F 44.6 °F 100% 29.64 in 0.5 mi West 4.6 mph - 0.02 in Rain Light Rain
6:55 PM 44.8 °F 41.0 °F 44.8 °F 100% 29.65 in 1.5 mi WSW 6.9 mph - 0.03 in   Heavy Drizzle
7:15 PM 44.1 °F 39.0 °F 44.1 °F 100% 29.66 in 2.5 mi West 9.2 mph - 0.01 in Rain Rain
7:35 PM 43.7 °F 40.3 °F 43.7 °F 100% 29.67 in 4.0 mi West 5.8 mph - 0.01 in Rain Rain
7:55 PM 42.8 °F 39.3 °F 42.8 °F 100% 29.67 in 2.0 mi WSW 5.8 mph - 0.01 in   Drizzle
8:15 PM 42.1 °F 37.7 °F 42.1 °F 100% 29.67 in 1.0 mi WSW 6.9 mph - 0.01 in   Overcast
8:35 PM 42.6 °F 40.9 °F 42.6 °F 100% 29.67 in 2.5 mi WSW 3.5 mph - 0.01 in   Overcast
8:55 PM 41.7 °F 39.8 °F 41.7 °F 100% 29.67 in 0.5 mi SW 3.5 mph - 0.01 in Fog Fog
9:15 PM 43.0 °F 41.3 °F 43.0 °F 100% 29.67 in 1.0 mi SW 3.5 mph - N/A   Overcast
9:35 PM 41.9 °F - 41.9 °F 100% 29.67 in 0.5 mi Calm Calm - N/A Fog Fog
9:55 PM 41.7 °F 39.8 °F 41.7 °F 100% 29.68 in 0.2 mi SW 3.5 mph - 0.01 in Rain Rain
10:15 PM 42.6 °F 40.9 °F 42.6 °F 100% 29.68 in 2.0 mi South 3.5 mph - 0.01 in Rain Light Rain
10:35 PM 41.4 °F 37.6 °F 41.4 °F 100% 29.68 in 0.5 mi South 5.8 mph - 0.01 in Fog Fog
10:55 PM 42.4 °F 38.1 °F 42.4 °F 100% 29.68 in 3.0 mi SW 6.9 mph - 0.01 in   Overcast
11:15 PM 42.8 °F 38.6 °F 42.8 °F 100% 29.68 in 3.0 mi SW 6.9 mph - N/A Rain Rain
11:35 PM 42.8 °F 39.3 °F 42.8 °F 100% 29.68 in 2.0 mi SW 5.8 mph - N/A Rain Light Rain
11:55 PM 42.8 °F 35.4 °F 42.8 °F 100% 29.68 in 7.0 mi SW 15.0 mph 19.6 mph N/A   Overcast
12:15 AM 41.4 °F 33.6 °F 41.4 °F 100% 29.67 in 4.0 mi SW 15.0 mph - N/A   Overcast
12:35 AM 40.8 °F 32.6 °F 40.8 °F 100% 29.67 in 1.0 mi SW 16.1 mph 23.0 mph N/A   Overcast
12:55 AM 39.4 °F 29.5 °F 39.4 °F 100% 29.68 in 1.0 mi WSW 20.7 mph 25.3 mph N/A   Overcast